Location: Rounton
(54.4000°N, 1.3500°W)
Time: 13:59:38
(UTC+00:00)

Altair - Pass Details

Date: 09 December 2021
Orbit: 1501 x 1683 km, 47.2° (Epoch: 19 January)

Event Time Altitude Azimuth Distance (km) Brightness Sun altitude
Rises 15:15:35 0° 235° (SW) 4,799 12.4 1.9°
Reaches altitude 10° 15:18:51 10° 231° (SW) 3,789 12.0 1.5°
Maximum altitude 15:27:50 48° 161° (SSE) 1,943 8.4 0.6°
Drops below altitude 10° 15:36:33 10° 91° (E) 3,679 9.1 -0.3°
Sets 15:39:40 0° 86° (E) 4,649 9.5 -0.7°
